CZ-6A DEB

Satellite information

Favourite Embed

Satellite Type and Status

DEBRISIN ORBIT

Key statistics

Satellite CZ-6A DEB at a glance.

Uptime

968

Days in orbit

Revolutions

≈ 14.0

Per day

Orbit

SSO

Sun Synchronous Orbit

Inclination

99.0

Latest

Satellite identification and parameters

Extended collection of information and parameters for CZ-6A DEB.

Object identification

Identified? True

Debris? True

Object name: CZ-6A DEB

International designator: 2022-151AHF

Object number (NORAD): 56679

Object ID (CCSDS): 56679

Country: PEOPLES REPUBLIC OF CHINA (PRC)

Current information (Y/N): Y

RCS size: SMALL

Orbital parameters

Period: 102.651 minutes

Inclination: 98.9528 deg

SMA: 7262.217 km

Apoapsis: 959.861 km

Periapsis: 808.304 km

RAAN: 181.6861 deg

Eccentricy: 0.0104346

Argument of periapsis: 332.7559 deg

Mean anomaly: 26.8156 deg

Mean motion: 14.02810103 rev/day

Mean motion (dot): 0.0000026 rev/day2

B* drag term: 0.00018759 1/REarth

Two-line elements (TLE)

Creation date: June 28, 2025, 5:41 p.m.

Reference frame: TEME

Reference center: EARTH

Epoch: June 28, 2025, 6:26 a.m. UTC

TLE line 0: 0 CZ-6A DEB

TLE line 1: 1 56679U 22151AHF 25179.26827437 .00000260 00000-0 18759-3 0 9998

TLE line 2: 2 56679 98.9528 181.6861 0104346 332.7559 26.8156 14.02810103111516

Live tracking on map

Real-time ground track for satellite CZ-6A DEB.

In-orbit conjunctions

A list of the most updated potential collisions computed for object CZ-6A DEB.

Target Orbit TCA Probability of collision Miss distance Type
COSMOS 1275 DEB LEO 2025-06-24 05:21:07 0.0001487582 51.0 (m) DEBRIS
SL-16 DEB LEO 2024-11-16 14:23:47 0.0002470916 348.0 (m) DEBRIS

Associated space launch

Chinese satellite reported for atmospheric/ocean/environmental/spatial parameter research purposes, details TBD.

CZ-6A DEB was lifted into orbit during the mission ‘Long March 6A | Yunhai 3’, on board a Long March 6A space rocket.

The launch took place on Nov. 11, 2022, 10:52 p.m. from Launch Complex 9A.

For more information about the launch, click the button.

Launch to space Long March 6A | Yunhai 3
Long March 6A | Yunhai 3

Agency: N/A

Status: Launch Successful

Launch date: Nov. 11, 2022, 10:52 p.m. UTC

Rocket: Long March 6A

Launch pad: Launch Complex 9A

Location: Taiyuan Satellite Launch Center, People's Republic of China

...

Latest news about this satellite

There are no fresh news available about this satellite. Check back as we update our databases every day.


Newsletter sign-up

Weekly statistics, charts and insights to help you stay on top of the space industry.